Starlink 32443

operational
NORAD ID: 61672 Int'l Des: 2024-193 Owner: SPXS Country: US Constellation: starlink
LEOCIRCULAR

Starlink 32443について

説明を読み込み中...

リアルタイム位置

3D地球を読み込み中...

次回通過

高度履歴

Altitude vs Time

uPlot chart will show altitude changes over time

軌道要素

1 61672U 24193M 25352.60355624 .00004113 00000-0 15096-3 0 9992
2 61672 53.1612 107.5292 0000662 70.9494 289.1578 15.30187380 64113
Epoch: Dec 18, 2025 • Age: 10 hours

現在のステータス

高度 480.7 km
速度 7.63 km/s
衛星直下点 50.03°N, 129.7°E
打ち上げ日 Oct 26, 2024
運用期間 1.1 years
タイプ internet

技術仕様

分類 Payload
質量 730.00 kg
乾燥質量 700.00 kg
総質量 730.00 kg
長さ 0.30 m
直径 4.10 m
スパン 29.00 m
形状 Box + pan
製造者 SPXS
バスタイプ Starlink V2M
フェーズステータス In Orbit
所有者/国 SPXS/US

大規模コンステレーション

Loading constellations...